When you browse on this site, cookies collect data to enhance your experience and personalize the content and advertising you see.
Visit our Privacy Policy to learn more. By continuing to use the site, you agree to this use of cookies and data.
  • în România
  • Lista ţărilor
  • Pe 7 zile
  • Temperatura apei
  • Hartă satelitară
  • Meteo pe hartă
  • Widget-uri
  • user-avatar
    Intrare

    Meteo pe oră la Wiktoria

    Astăzi, 10 Decembrie, Luni

    Timp Temperatura Precipitaţii Vânt Presiune Umiditate
    00:00 +19°C° 0.2 mm 2 m/s 750 mmHg 85%
    01:00 +20°C° 0.2 mm 1 m/s 750 mmHg 87%
    02:00 +19°C° 0 mm 1 m/s 750 mmHg 88%
    03:00 +19°C° 0 mm 1 m/s 750 mmHg 88%
    04:00 +19°C° 0 mm 1 m/s 749 mmHg 89%
    05:00 +18°C° 0 mm 2 m/s 750 mmHg 85%
    06:00 +19°C° 0 mm 2 m/s 750 mmHg 80%
    07:00 +20°C° 0 mm 3 m/s 750 mmHg 76%
    08:00 +22°C° 0 mm 3 m/s 750 mmHg 66%
    09:00 +25°C° 0 mm 4 m/s 750 mmHg 56%
    10:00 +27°C° 0 mm 4 m/s 750 mmHg 43%
    11:00 +28°C° 0 mm 4 m/s 750 mmHg 38%
    12:00 +29°C° 0 mm 5 m/s 750 mmHg 33%
    13:00 +30°C° 0 mm 5 m/s 749 mmHg 27%
    14:00 +30°C° 0 mm 5 m/s 749 mmHg 27%
    15:00 +30°C° 0 mm 6 m/s 749 mmHg 28%
    16:00 +29°C° 0 mm 6 m/s 749 mmHg 29%
    17:00 +27°C° 0 mm 6 m/s 749 mmHg 33%
    18:00 +25°C° 0 mm 5 m/s 749 mmHg 36%
    19:00 +23°C° 0 mm 5 m/s 750 mmHg 39%
    20:00 +21°C° 0 mm 5 m/s 750 mmHg 42%
    21:00 +19°C° 0 mm 5 m/s 750 mmHg 46%
    22:00 +18°C° 0 mm 4 m/s 751 mmHg 50%
    23:00 +17°C° 0 mm 4 m/s 751 mmHg 55%

    Mâine, 11 Decembrie, Marţi

    Timp Temperatura Precipitaţii Vânt Presiune Umiditate
    00:00 +15°C° 0 mm 4 m/s 751 mmHg 60%
    01:00 +14°C° 0 mm 4 m/s 751 mmHg 64%
    02:00 +14°C° 0 mm 4 m/s 750 mmHg 68%
    03:00 +13°C° 0 mm 3 m/s 750 mmHg 71%
    04:00 +13°C° 0 mm 3 m/s 750 mmHg 75%
    05:00 +14°C° 0 mm 3 m/s 750 mmHg 71%
    06:00 +16°C° 0 mm 3 m/s 750 mmHg 67%
    07:00 +18°C° 0 mm 3 m/s 750 mmHg 62%
    08:00 +21°C° 0 mm 2 m/s 750 mmHg 56%
    09:00 +25°C° 0 mm 2 m/s 750 mmHg 49%
    10:00 +28°C° 0 mm 2 m/s 750 mmHg 43%
    11:00 +30°C° 0 mm 1 m/s 749 mmHg 36%
    12:00 +32°C° 0 mm 1 m/s 749 mmHg 30%
    13:00 +33°C° 0 mm 1 m/s 748 mmHg 23%
    14:00 +34°C° 0 mm 1 m/s 748 mmHg 22%
    15:00 +34°C° 0 mm 1 m/s 747 mmHg 20%
    16:00 +34°C° 0 mm 1 m/s 747 mmHg 18%
    17:00 +32°C° 0 mm 2 m/s 747 mmHg 23%
    18:00 +30°C° 0 mm 2 m/s 747 mmHg 27%
    19:00 +28°C° 0 mm 3 m/s 747 mmHg 32%
    20:00 +26°C° 0 mm 3 m/s 747 mmHg 39%
    21:00 +24°C° 0 mm 3 m/s 747 mmHg 46%
    22:00 +21°C° 0 mm 3 m/s 747 mmHg 53%
    23:00 +21°C° 0 mm 3 m/s 747 mmHg 56%

    Poimâine, 12 Decembrie, Miercuri

    Timp Temperatura Precipitaţii Vânt Presiune Umiditate
    00:00 +21°C° 0 mm 3 m/s 747 mmHg 58%
    01:00 +20°C° 0 mm 3 m/s 746 mmHg 61%
    02:00 +21°C° 0 mm 3 m/s 746 mmHg 63%
    03:00 +21°C° 0 mm 4 m/s 746 mmHg 65%
    04:00 +21°C° 0 mm 4 m/s 746 mmHg 66%
    05:00 +22°C° 0 mm 4 m/s 746 mmHg 66%
    06:00 +23°C° 0 mm 5 m/s 746 mmHg 66%
    07:00 +23°C° 0 mm 6 m/s 746 mmHg 66%
    08:00 +26°C° 0 mm 6 m/s 746 mmHg 60%
    09:00 +28°C° 0 mm 6 m/s 746 mmHg 55%
    10:00 +30°C° 0 mm 6 m/s 746 mmHg 50%
    11:00 +33°C° 0.1 mm 6 m/s 745 mmHg 44%
    12:00 +34°C° 0.1 mm 5 m/s 744 mmHg 38%
    13:00 +36°C° 0.1 mm 5 m/s 743 mmHg 32%
    14:00 +36°C° 0 mm 5 m/s 742 mmHg 30%
    15:00 +36°C° 0 mm 4 m/s 741 mmHg 28%
    16:00 +35°C° 0 mm 4 m/s 740 mmHg 27%
    17:00 +34°C° 0.1 mm 4 m/s 740 mmHg 31%
    18:00 +32°C° 0.1 mm 4 m/s 740 mmHg 35%
    19:00 +30°C° 0.1 mm 4 m/s 740 mmHg 40%
    20:00 +28°C° 0.1 mm 3 m/s 740 mmHg 47%
    21:00 +27°C° 0.1 mm 2 m/s 740 mmHg 54%
    22:00 +25°C° 0.1 mm 2 m/s 741 mmHg 61%
    23:00 +25°C° 0.5 mm 1 m/s 740 mmHg 66%

    13 Decembrie, Joi

    Timp Temperatura Precipitaţii Vânt Presiune Umiditate
    00:00 +24°C° 0.5 mm 1 m/s 740 mmHg 71%
    01:00 +21°C° 0.5 mm 0 m/s 740 mmHg 76%
    02:00 +23°C° 0.8 mm 1 m/s 739 mmHg 79%
    03:00 +21°C° 0.8 mm 2 m/s 739 mmHg 83%
    04:00 +21°C° 0.8 mm 3 m/s 739 mmHg 86%
    05:00 +22°C° 0.6 mm 4 m/s 739 mmHg 84%
    06:00 +22°C° 0.6 mm 5 m/s 739 mmHg 82%
    07:00 +23°C° 0.6 mm 6 m/s 739 mmHg 80%
    08:00 +23°C° 2 mm 5 m/s 738 mmHg 79%
    09:00 +23°C° 2 mm 5 m/s 738 mmHg 79%
    10:00 +23°C° 2 mm 4 m/s 738 mmHg 79%
    11:00 +23°C° 4.3 mm 5 m/s 737 mmHg 80%
    12:00 +22°C° 4.3 mm 5 m/s 737 mmHg 82%
    13:00 +21°C° 4.3 mm 6 m/s 736 mmHg 83%
    14:00 +21°C° 3.1 mm 5 m/s 736 mmHg 83%
    15:00 +20°C° 3.1 mm 5 m/s 736 mmHg 82%
    16:00 +20°C° 3.1 mm 5 m/s 735 mmHg 81%
    17:00 +19°C° 1 mm 5 m/s 735 mmHg 82%
    18:00 +17°C° 1 mm 5 m/s 735 mmHg 83%
    19:00 +16°C° 1 mm 6 m/s 735 mmHg 83%
    20:00 +16°C° 0.2 mm 5 m/s 735 mmHg 85%
    21:00 +17°C° 0.2 mm 4 m/s 735 mmHg 87%
    22:00 +17°C° 0.2 mm 3 m/s 735 mmHg 89%
    23:00 +17°C° 0.3 mm 3 m/s 734 mmHg 90%

    14 Decembrie, Vineri

    Timp Temperatura Precipitaţii Vânt Presiune Umiditate
    00:00 +17°C° 0.3 mm 2 m/s 734 mmHg 92%
    01:00 +17°C° 0.3 mm 2 m/s 733 mmHg 93%
    02:00 +16°C° 1.6 mm 3 m/s 733 mmHg 93%
    03:00 +16°C° 1.6 mm 3 m/s 733 mmHg 93%
    04:00 +16°C° 1.6 mm 3 m/s 733 mmHg 93%
    05:00 +15°C° 1.5 mm 4 m/s 734 mmHg 90%
    06:00 +15°C° 1.5 mm 4 m/s 735 mmHg 87%
    07:00 +15°C° 1.5 mm 5 m/s 736 mmHg 83%
    08:00 +16°C° 0.1 mm 5 m/s 736 mmHg 78%
    09:00 +17°C° 0.1 mm 6 m/s 737 mmHg 72%
    10:00 +17°C° 0.1 mm 7 m/s 738 mmHg 67%
    11:00 +19°C° 0 mm 6 m/s 738 mmHg 62%
    12:00 +20°C° 0 mm 6 m/s 738 mmHg 57%
    13:00 +21°C° 0 mm 6 m/s 738 mmHg 52%
    14:00 +22°C° 0 mm 6 m/s 739 mmHg 50%
    15:00 +22°C° 0 mm 6 m/s 739 mmHg 48%
    16:00 +23°C° 0 mm 6 m/s 739 mmHg 46%
    17:00 +22°C° 0 mm 5 m/s 739 mmHg 50%
    18:00 +21°C° 0 mm 3 m/s 740 mmHg 53%
    19:00 +20°C° 0 mm 2 m/s 740 mmHg 56%
    20:00 +19°C° 0 mm 2 m/s 740 mmHg 58%
    21:00 +18°C° 0 mm 2 m/s 741 mmHg 61%
    22:00 +17°C° 0 mm 3 m/s 741 mmHg 63%
    23:00 +17°C° 0 mm 3 m/s 741 mmHg 66%

    15 Decembrie, Sâmbătă

    Timp Temperatura Precipitaţii Vânt Presiune Umiditate
    00:00 +16°C° 0 mm 3 m/s 740 mmHg 70%
    01:00 +16°C° 0 mm 3 m/s 740 mmHg 73%
    02:00 +16°C° 0 mm 3 m/s 740 mmHg 74%
    03:00 +16°C° 0 mm 2 m/s 740 mmHg 74%
    04:00 +16°C° 0 mm 2 m/s 740 mmHg 75%
    05:00 +16°C° 0 mm 2 m/s 740 mmHg 72%
    06:00 +17°C° 0 mm 2 m/s 740 mmHg 70%
    07:00 +18°C° 0 mm 3 m/s 740 mmHg 67%
    08:00 +20°C° 0 mm 4 m/s 740 mmHg 56%
    09:00 +23°C° 0 mm 5 m/s 740 mmHg 45%
    10:00 +26°C° 0 mm 6 m/s 740 mmHg 33%
    11:00 +26°C° 0 mm 6 m/s 740 mmHg 36%
    12:00 +24°C° 0 mm 6 m/s 740 mmHg 39%
    13:00 +24°C° 0 mm 6 m/s 739 mmHg 41%
    14:00 +24°C° 0.1 mm 6 m/s 739 mmHg 42%
    15:00 +24°C° 0.1 mm 6 m/s 739 mmHg 42%
    16:00 +24°C° 0.1 mm 6 m/s 738 mmHg 42%
    17:00 +23°C° 0.3 mm 5 m/s 739 mmHg 50%
    18:00 +22°C° 0.3 mm 4 m/s 739 mmHg 58%
    19:00 +21°C° 0.3 mm 3 m/s 739 mmHg 65%
    20:00 +20°C° 0.3 mm 2 m/s 739 mmHg 70%
    21:00 +19°C° 0.3 mm 2 m/s 740 mmHg 75%
    22:00 +19°C° 0.3 mm 1 m/s 740 mmHg 80%
    23:00 +18°C° 0.5 mm 1 m/s 740 mmHg 81%
    Arată mai mult